�N����,����,�g�[���i���ԁj���x,�g�[�����x,��g�[���i���ցj���x,����
 2004/09/01, 0:00,27.3,70,25.7,27
 2004/09/01, 0:15,27.2,70,25.8,27
 2004/09/01, 0:30,27.1,71,25.7,26.9
 2004/09/01, 0:45,26.9,72,25.4,26.9
 2004/09/01, 1:00,26.9,72,25.2,26.9
 2004/09/01, 1:15,26.8,73,25.1,26.9
 2004/09/01, 1:30,26.8,73,25.3,26.9
 2004/09/01, 1:45,26.6,73,25.2,26.9
 2004/09/01, 2:00,26.4,74,25.2,26.8
 2004/09/01, 2:15,26.4,74,25,26.8
 2004/09/01, 2:30,26.4,73,25,26.8
 2004/09/01, 2:45,26.3,74,25.1,26.8
 2004/09/01, 3:00,26.3,74,25.1,26.8
 2004/09/01, 3:15,26.3,74,25.1,26.8
 2004/09/01, 3:30,26.2,74,25,26.7
 2004/09/01, 3:45,26.2,75,25,26.7
 2004/09/01, 4:00,26.2,75,24.8,26.7
 2004/09/01, 4:15,26.2,75,25.1,26.7
 2004/09/01, 4:30,26.1,75,24.9,26.7
 2004/09/01, 4:45,26.1,75,24.8,26.6
 2004/09/01, 5:00,26,76,24.8,26.6
 2004/09/01, 5:15,26,76,25,26.2
 2004/09/01, 5:30,26,75,24.6,26.4
 2004/09/01, 5:45,26,75,24.6,26.4
 2004/09/01, 6:00,25.9,76,24.7,26.4
 2004/09/01, 6:15,25.9,76,24.9,26.4
 2004/09/01, 6:30,25.9,76,25,26.4
 2004/09/01, 6:45,25.9,76,25.7,26.4
 2004/09/01, 7:00,25.9,76,25.7,26.4
 2004/09/01, 7:15,25.9,76,25.5,26.3
 2004/09/01, 7:30,25.9,76,25.6,26.3
 2004/09/01, 7:45,26,75,26,26.3
 2004/09/01, 8:00,26.4,76,27.1,26.2
 2004/09/01, 8:15,26.9,75,27.9,26.2
 2004/09/01, 8:30,27.2,74,28.5,26.5
 2004/09/01, 8:45,27.5,72,28.7,26.9
 2004/09/01, 9:00,27.8,72,28.9,26.9
 2004/09/01, 9:15,28.2,71,29.3,26.9
 2004/09/01, 9:30,28.3,70,29,26.9
 2004/09/01, 9:45,28.2,71,28.5,26.9
 2004/09/01,10:00,28.5,69,28.6,26.9
 2004/09/01,10:15,28.4,67,28.3,26.9
 2004/09/01,10:30,28.7,66,28.6,26.9
 2004/09/01,10:45,28.9,64,28.7,26.8
 2004/09/01,11:00,28.8,58,28.7,26.8
 2004/09/01,11:15,29,60,28.7,26.8
 2004/09/01,11:30,29.1,60,28.7,26.8
 2004/09/01,11:45,29.1,61,28.7,26.8
 2004/09/01,12:00,29.4,61,29,27
 2004/09/01,12:15,29.3,59,29,27
 2004/09/01,12:30,29.3,61,28.9,27
 2004/09/01,12:45,29.3,61,28.9,27
 2004/09/01,13:00,29.6,60,29,27.2
 2004/09/01,13:15,29.5,59,29.1,27
 2004/09/01,13:30,29.5,59,29.2,27
 2004/09/01,13:45,29.6,57,29.2,27.1
 2004/09/01,14:00,29.5,62,29.1,27.1
 2004/09/01,14:15,29.5,64,29.1,27.1
 2004/09/01,14:30,29.5,65,29,26.9
 2004/09/01,14:45,29.4,64,28.9,26.9
 2004/09/01,15:00,29.2,65,28.8,26.9
 2004/09/01,15:15,29.2,65,28.8,26.9
 2004/09/01,15:30,29.1,66,28.7,27.2
 2004/09/01,15:45,29.1,68,28.7,27.2
 2004/09/01,16:00,29.1,68,28.7,27.2
 2004/09/01,16:15,29,68,28.6,27.2
 2004/09/01,16:30,29,68,28.5,27.2
 2004/09/01,16:45,28.9,66,28.5,27.3
 2004/09/01,17:00,28.9,67,28.4,27.3
 2004/09/01,17:15,29,68,28.4,27.3
 2004/09/01,17:30,29,70,28.3,27.2
 2004/09/01,17:45,28.6,60,28,27.1
 2004/09/01,18:00,28.3,53,27.5,27.1
 2004/09/01,18:15,27.9,52,27.1,27.3
 2004/09/01,18:30,27.9,52,27.1,27.3
 2004/09/01,18:45,27.5,55,26.7,27.3
 2004/09/01,19:00,27.3,53,26.6,27.3
 2004/09/01,19:15,27.2,55,26.4,27.3
 2004/09/01,19:30,27,55,26.3,27.3
 2004/09/01,19:45,26.9,56,26.1,27.2
 2004/09/01,20:00,27,58,26.3,27.2
 2004/09/01,20:15,26.8,57,26.3,27.2
 2004/09/01,20:30,26.6,56,26,27.2
 2004/09/01,20:45,26.7,58,25.7,27.1
 2004/09/01,21:00,26.8,56,25.9,27.1
 2004/09/01,21:15,26.8,56,25.8,27.1
 2004/09/01,21:30,26.8,55,25.7,27.1
 2004/09/01,21:45,26.9,57,25.4,27.1
 2004/09/01,22:00,27,58,25.3,26.5
 2004/09/01,22:15,27,58,25.2,27
 2004/09/01,22:30,26.9,60,25.2,26.9
 2004/09/01,22:45,26.8,58,25.2,26.9
 2004/09/01,23:00,26.8,55,25.2,26.9
 2004/09/01,23:15,26.6,56,25.2,26.8
 2004/09/01,23:30,26.7,57,25,26.8
 2004/09/01,23:45,26.6,58,25.1,26.7
 2004/09/02, 0:00,26.7,59,25,26.7
 2004/09/02, 0:15,26.6,60,25.1,26.8
 2004/09/02, 0:30,26.5,63,25,26.7
 2004/09/02, 0:45,26.3,63,24.9,26.7
 2004/09/02, 1:00,26.2,63,24.7,26.7
 2004/09/02, 1:15,26,64,24.5,26.7
 2004/09/02, 1:30,25.9,65,24.3,26.7
 2004/09/02, 1:45,25.6,65,24.1,26.6
 2004/09/02, 2:00,25.5,66,24.1,26.6
 2004/09/02, 2:15,25.4,67,23.9,26.6
 2004/09/02, 2:30,25.1,65,23.3,26.5
 2004/09/02, 2:45,24.9,63,23.2,26.5
 2004/09/02, 3:00,24.7,63,22.7,26.5
 2004/09/02, 3:15,24.5,63,22.6,26.5
 2004/09/02, 3:30,24.4,64,22.4,26.4
 2004/09/02, 3:45,24.2,63,22.5,26.2
 2004/09/02, 4:00,24.3,64,22.7,26.2
 2004/09/02, 4:15,24.2,65,22.5,26.1
 2004/09/02, 4:30,24.2,66,22,26.1
 2004/09/02, 4:45,24,66,22,26
 2004/09/02, 5:00,23.8,67,22,26
 2004/09/02, 5:15,23.8,68,21.9,25.9
 2004/09/02, 5:30,23.8,68,21.9,25.8
 2004/09/02, 5:45,23.8,68,22.4,25.7
 2004/09/02, 6:00,23.8,68,22.5,25.7
 2004/09/02, 6:15,23.5,68,22.1,25.6
 2004/09/02, 6:30,23.5,69,21.8,25.5
 2004/09/02, 6:45,23.6,69,22.2,25.5
 2004/09/02, 7:00,23.5,70,22,25.4
 2004/09/02, 7:15,23.5,71,22.4,26.3
 2004/09/02, 7:30,23.4,71,22.4,26.4
 2004/09/02, 7:45,23.3,72,22.4,26.7
 2004/09/02, 8:00,23.3,71,22.4,26.6
 2004/09/02, 8:15,23.4,71,22.6,26.6
 2004/09/02, 8:30,23.5,70,22.6,26.5
 2004/09/02, 8:45,23.4,72,22.4,26.4
 2004/09/02, 9:00,23.4,73,22.9,26.5
 2004/09/02, 9:15,23.4,73,22.9,26.5
 2004/09/02, 9:30,23.5,72,22.8,26.5
 2004/09/02, 9:45,23.6,73,22.8,26.4
 2004/09/02,10:00,23.7,72,22.7,26.3
 2004/09/02,10:15,23.7,70,22.8,26.3
 2004/09/02,10:30,23.6,71,22.9,26.2
 2004/09/02,10:45,23.5,71,22.8,26.1
 2004/09/02,11:00,23.5,72,22.9,26.1
 2004/09/02,11:15,23.5,72,22.9,25.8
 2004/09/02,11:30,23.6,72,22.9,25.9
 2004/09/02,11:45,23.6,71,23,25.8
 2004/09/02,12:00,23.6,70,22.8,25.8
 2004/09/02,12:15,23.5,68,23,25.8
 2004/09/02,12:30,23.5,68,23,25.7
 2004/09/02,12:45,23.5,68,23,25.6
 2004/09/02,13:00,23.4,70,22.9,25.6
 2004/09/02,13:15,23.3,73,22.9,25.5
 2004/09/02,13:30,23.3,73,22.8,25.5
 2004/09/02,13:45,23.2,73,22.7,25.4
 2004/09/02,14:00,23.1,72,22.6,25.4
 2004/09/02,14:15,23,71,22.6,25.3
 2004/09/02,14:30,23.1,71,22.7,25.3
 2004/09/02,14:45,23.1,71,22.7,25.2
 2004/09/02,15:00,23.2,71,22.9,25.2
 2004/09/02,15:15,23.2,72,23.1,25.5
 2004/09/02,15:30,23.4,71,23.2,25.5
 2004/09/02,15:45,23.5,72,23.2,25.4
 2004/09/02,16:00,23.5,72,23.3,25.4
 2004/09/02,16:15,23.5,71,23.3,25.4
 2004/09/02,16:30,23.6,72,23.4,25.3
 2004/09/02,16:45,23.8,72,23.2,25.3
 2004/09/02,17:00,23.7,72,23.2,25.2
 2004/09/02,17:15,23.8,72,23,25.2
 2004/09/02,17:30,23.7,73,22.9,26.4
 2004/09/02,17:45,23.9,74,23,26.5
 2004/09/02,18:00,23.9,76,22.8,26.5
 2004/09/02,18:15,23.8,75,23,26.4
 2004/09/02,18:30,23.7,75,22.8,26.4
 2004/09/02,18:45,23.6,74,22.7,26.4
 2004/09/02,19:00,23.5,74,22.6,26.2
 2004/09/02,19:15,23.6,74,22.5,26.1
 2004/09/02,19:30,23.6,76,22.4,26.1
 2004/09/02,19:45,23.6,75,22.3,26
 2004/09/02,20:00,23.5,74,22.4,26
 2004/09/02,20:15,23.4,73,22.2,25.9
 2004/09/02,20:30,23.4,73,22.1,25.8
 2004/09/02,20:45,23.4,73,22.1,25.8
 2004/09/02,21:00,23.3,73,22.1,25.7
 2004/09/02,21:15,23.3,73,22.1,25.7
 2004/09/02,21:30,23.2,73,21.9,25.6
 2004/09/02,21:45,23.2,73,21.8,25.6
 2004/09/02,22:00,23.2,73,21.8,25.5
 2004/09/02,22:15,23.2,74,21.8,25.7
 2004/09/02,22:30,23.2,74,21.6,25.7
 2004/09/02,22:45,23.5,76,21.6,25.7
 2004/09/02,23:00,23.5,76,21.9,26.2
 2004/09/02,23:15,23.6,74,22.1,26.1
 2004/09/02,23:30,23.6,74,22.1,26.5
 2004/09/02,23:45,23.6,74,22.2,26.5
 2004/09/03, 0:00,23.7,74,22.1,26.4
 2004/09/03, 0:15,23.7,74,22.2,26.3
 2004/09/03, 0:30,23.6,73,22.2,26.3
 2004/09/03, 0:45,23.4,73,22.2,26.2
 2004/09/03, 1:00,23.4,73,22.2,26.1
 2004/09/03, 1:15,23.3,73,22.2,26.1
 2004/09/03, 1:30,23.2,73,22.2,26
 2004/09/03, 1:45,23.2,74,22.1,25.6
 2004/09/03, 2:00,23.2,74,22.1,25.6
 2004/09/03, 2:15,23.1,74,22.1,25.5
 2004/09/03, 2:30,23.1,74,22.1,25.5
 2004/09/03, 2:45,23.1,74,22.1,25.4
 2004/09/03, 3:00,23,74,22.1,25.3
 2004/09/03, 3:15,22.9,74,22,25.3
 2004/09/03, 3:30,23,74,22,25.2
 2004/09/03, 3:45,22.8,74,22,25.1
 2004/09/03, 4:00,22.8,74,21.9,25
 2004/09/03, 4:15,22.8,74,22,25
 2004/09/03, 4:30,22.8,74,22,24.9
 2004/09/03, 4:45,22.7,75,21.9,24.9
 2004/09/03, 5:00,22.7,75,21.9,24.8
 2004/09/03, 5:15,22.7,74,21.9,24.7
 2004/09/03, 5:30,22.8,74,21.9,24.7
 2004/09/03, 5:45,22.6,75,21.8,24.6
 2004/09/03, 6:00,22.6,75,21.9,24.6
 2004/09/03, 6:15,22.6,74,21.8,24.5
 2004/09/03, 6:30,22.6,74,21.8,24.8
 2004/09/03, 6:45,22.6,74,21.9,25.8
 2004/09/03, 7:00,22.8,74,21.9,25.8
 2004/09/03, 7:15,22.7,74,21.9,25.7
 2004/09/03, 7:30,22.7,74,21.8,25.6
 2004/09/03, 7:45,22.6,74,21.9,26
 2004/09/03, 8:00,-9.9,-9.9,-9.9,26.3
 2004/09/03, 8:15,-9.9,-9.9,-9.9,26.2
 2004/09/03, 8:30,-9.9,-9.9,-9.9,26.1
 2004/09/03, 8:45,-9.9,-9.9,-9.9,26.1
 2004/09/03, 9:00,-9.9,-9.9,-9.9,26
 2004/09/03, 9:15,-9.9,-9.9,-9.9,25.9
 2004/09/03, 9:30,-9.9,-9.9,-9.9,25.6
 2004/09/03, 9:45,-9.9,-9.9,-9.9,25.7
 2004/09/03,10:00,-9.9,-9.9,-9.9,25.6
 2004/09/03,10:15,-9.9,-9.9,-9.9,25.8
 2004/09/03,10:30,-9.9,-9.9,-9.9,25.8
 2004/09/03,10:45,-9.9,-9.9,-9.9,25.7
 2004/09/03,11:00,-9.9,-9.9,-9.9,25.6
 2004/09/03,11:15,-9.9,-9.9,-9.9,25.6
 2004/09/03,11:30,-9.9,-9.9,-9.9,25.5
 2004/09/03,11:45,-9.9,-9.9,-9.9,25.5
 2004/09/03,12:00,-9.9,-9.9,-9.9,26.3
 2004/09/03,12:15,-9.9,-9.9,-9.9,26.2
 2004/09/03,12:30,-9.9,-9.9,-9.9,26.3
 2004/09/03,12:45,-9.9,-9.9,-9.9,26.2
 2004/09/03,13:00,-9.9,-9.9,-9.9,26.2
 2004/09/03,13:15,-9.9,-9.9,-9.9,26.1
 2004/09/03,13:30,-9.9,-9.9,-9.9,26.1
 2004/09/03,13:45,-9.9,-9.9,-9.9,26.1
 2004/09/03,14:00,-9.9,-9.9,-9.9,26.1
 2004/09/03,14:15,-9.9,-9.9,-9.9,26
 2004/09/03,14:30,-9.9,-9.9,-9.9,26
 2004/09/03,14:45,-9.9,-9.9,-9.9,26
 2004/09/03,15:00,-9.9,-9.9,-9.9,26
 2004/09/03,15:15,-9.9,-9.9,-9.9,26
 2004/09/03,15:30,-9.9,-9.9,-9.9,26
 2004/09/03,15:45,-9.9,-9.9,-9.9,25.9
 2004/09/03,16:00,-9.9,-9.9,-9.9,25.9
 2004/09/03,16:15,-9.9,-9.9,-9.9,26.4
 2004/09/03,16:30,-9.9,-9.9,-9.9,26.4
 2004/09/03,16:45,-9.9,-9.9,-9.9,26.4
 2004/09/03,17:00,-9.9,-9.9,-9.9,26.4
 2004/09/03,17:15,-9.9,-9.9,-9.9,26.4
 2004/09/03,17:30,-9.9,-9.9,-9.9,26.4
 2004/09/03,17:45,-9.9,-9.9,-9.9,26.4
 2004/09/03,18:00,-9.9,-9.9,-9.9,26.4
 2004/09/03,18:15,-9.9,-9.9,-9.9,26.3
 2004/09/03,18:30,-9.9,-9.9,-9.9,26.2
 2004/09/03,18:45,-9.9,-9.9,-9.9,26.2
 2004/09/03,19:00,-9.9,-9.9,-9.9,26.2
 2004/09/03,19:15,-9.9,-9.9,-9.9,26.2
 2004/09/03,19:30,-9.9,-9.9,-9.9,26
 2004/09/03,19:45,-9.9,-9.9,-9.9,26.2
 2004/09/03,20:00,-9.9,-9.9,-9.9,26.2
 2004/09/03,20:15,-9.9,-9.9,-9.9,26.2
 2004/09/03,20:30,-9.9,-9.9,-9.9,26.2
 2004/09/03,20:45,-9.9,-9.9,-9.9,26.2
 2004/09/03,21:00,-9.9,-9.9,-9.9,26.4
 2004/09/03,21:15,-9.9,-9.9,-9.9,26.5
 2004/09/03,21:30,-9.9,-9.9,-9.9,26.3
 2004/09/03,21:45,-9.9,-9.9,-9.9,26.3
 2004/09/03,22:00,-9.9,-9.9,-9.9,26.3
 2004/09/03,22:15,-9.9,-9.9,-9.9,26.3
 2004/09/03,22:30,-9.9,-9.9,-9.9,26.3
 2004/09/03,22:45,-9.9,-9.9,-9.9,26.3
 2004/09/03,23:00,-9.9,-9.9,-9.9,26.2
 2004/09/03,23:15,-9.9,-9.9,-9.9,26.2
 2004/09/03,23:30,-9.9,-9.9,-9.9,26.6
 2004/09/03,23:45,-9.9,-9.9,-9.9,26.4
 2004/09/04, 0:00,-9.9,-9.9,-9.9,26.4
 2004/09/04, 0:15,-9.9,-9.9,-9.9,26.4
 2004/09/04, 0:30,-9.9,-9.9,-9.9,26.3
 2004/09/04, 0:45,-9.9,-9.9,-9.9,26.2
 2004/09/04, 1:00,-9.9,-9.9,-9.9,26.1
 2004/09/04, 1:15,-9.9,-9.9,-9.9,25.8
 2004/09/04, 1:30,-9.9,-9.9,-9.9,25.8
 2004/09/04, 1:45,-9.9,-9.9,-9.9,25.8
 2004/09/04, 2:00,-9.9,-9.9,-9.9,25.8
 2004/09/04, 2:15,-9.9,-9.9,-9.9,25.7
 2004/09/04, 2:30,-9.9,-9.9,-9.9,25.7
 2004/09/04, 2:45,-9.9,-9.9,-9.9,25.7
 2004/09/04, 3:00,-9.9,-9.9,-9.9,25.6
 2004/09/04, 3:15,-9.9,-9.9,-9.9,25.6
 2004/09/04, 3:30,-9.9,-9.9,-9.9,25.6
 2004/09/04, 3:45,-9.9,-9.9,-9.9,25.5
 2004/09/04, 4:00,-9.9,-9.9,-9.9,25.5
 2004/09/04, 4:15,-9.9,-9.9,-9.9,25.5
 2004/09/04, 4:30,-9.9,-9.9,-9.9,25.4
 2004/09/04, 4:45,-9.9,-9.9,-9.9,25.4
 2004/09/04, 5:00,-9.9,-9.9,-9.9,25.2
 2004/09/04, 5:15,-9.9,-9.9,-9.9,25.2
 2004/09/04, 5:30,-9.9,-9.9,-9.9,25.2
 2004/09/04, 5:45,-9.9,-9.9,-9.9,25.2
 2004/09/04, 6:00,-9.9,-9.9,-9.9,25.9
 2004/09/04, 6:15,-9.9,-9.9,-9.9,25.9
 2004/09/04, 6:30,-9.9,-9.9,-9.9,25.9
 2004/09/04, 6:45,-9.9,-9.9,-9.9,25.8
 2004/09/04, 7:00,-9.9,-9.9,-9.9,25.8
 2004/09/04, 7:15,-9.9,-9.9,-9.9,26.2
 2004/09/04, 7:30,-9.9,-9.9,-9.9,26.3
 2004/09/04, 7:45,-9.9,-9.9,-9.9,26.3
 2004/09/04, 8:00,-9.9,-9.9,-9.9,26.3
 2004/09/04, 8:15,-9.9,-9.9,-9.9,26.3
 2004/09/04, 8:30,-9.9,-9.9,-9.9,26.2
 2004/09/04, 8:45,-9.9,-9.9,-9.9,25.8
 2004/09/04, 9:00,-9.9,-9.9,-9.9,26.3
 2004/09/04, 9:15,-9.9,-9.9,-9.9,26.3
 2004/09/04, 9:30,-9.9,-9.9,-9.9,26.2
 2004/09/04, 9:45,-9.9,-9.9,-9.9,26.2
 2004/09/04,10:00,-9.9,-9.9,-9.9,26.2
 2004/09/04,10:15,-9.9,-9.9,-9.9,26.1
 2004/09/04,10:30,-9.9,-9.9,-9.9,26.1
 2004/09/04,10:45,-9.9,-9.9,-9.9,26.2
 2004/09/04,11:00,-9.9,-9.9,-9.9,26.4
 2004/09/04,11:15,-9.9,-9.9,-9.9,26.3
 2004/09/04,11:30,-9.9,-9.9,-9.9,26.3
 2004/09/04,11:45,-9.9,-9.9,-9.9,26.3
 2004/09/04,12:00,-9.9,-9.9,-9.9,25.8
 2004/09/04,12:15,-9.9,-9.9,-9.9,26
 2004/09/04,12:30,-9.9,-9.9,-9.9,26.3
 2004/09/04,12:45,-9.9,-9.9,-9.9,26.3
 2004/09/04,13:00,-9.9,-9.9,-9.9,26.3
 2004/09/04,13:15,-9.9,-9.9,-9.9,26.3
 2004/09/04,13:30,-9.9,-9.9,-9.9,26.3
 2004/09/04,13:45,-9.9,-9.9,-9.9,25.9
 2004/09/04,14:00,-9.9,-9.9,-9.9,26
 2004/09/04,14:15,-9.9,-9.9,-9.9,26
 2004/09/04,14:30,-9.9,-9.9,-9.9,26.1
 2004/09/04,14:45,-9.9,-9.9,-9.9,26.1
 2004/09/04,15:00,-9.9,-9.9,-9.9,26.1
 2004/09/04,15:15,-9.9,-9.9,-9.9,25.9
 2004/09/04,15:30,-9.9,-9.9,-9.9,26.3
 2004/09/04,15:45,-9.9,-9.9,-9.9,26.3
 2004/09/04,16:00,-9.9,-9.9,-9.9,26.3
 2004/09/04,16:15,-9.9,-9.9,-9.9,26.3
 2004/09/04,16:30,-9.9,-9.9,-9.9,26.3
 2004/09/04,16:45,-9.9,-9.9,-9.9,26.1
 2004/09/04,17:00,-9.9,-9.9,-9.9,26.1
 2004/09/04,17:15,-9.9,-9.9,-9.9,26.1
 2004/09/04,17:30,-9.9,-9.9,-9.9,26.1
 2004/09/04,17:45,-9.9,-9.9,-9.9,26.3
 2004/09/04,18:00,-9.9,-9.9,-9.9,26.3
 2004/09/04,18:15,-9.9,-9.9,-9.9,26.3
 2004/09/04,18:30,-9.9,-9.9,-9.9,26.5
 2004/09/04,18:45,-9.9,-9.9,-9.9,26.6
 2004/09/04,19:00,-9.9,-9.9,-9.9,26.4
 2004/09/04,19:15,-9.9,-9.9,-9.9,26.6
 2004/09/04,19:30,-9.9,-9.9,-9.9,26.6
 2004/09/04,19:45,-9.9,-9.9,-9.9,26.6
 2004/09/04,20:00,-9.9,-9.9,-9.9,26.6
 2004/09/04,20:15,-9.9,-9.9,-9.9,26.5
 2004/09/04,20:30,-9.9,-9.9,-9.9,26.1
 2004/09/04,20:45,-9.9,-9.9,-9.9,26.2
 2004/09/04,21:00,-9.9,-9.9,-9.9,26.2
 2004/09/04,21:15,-9.9,-9.9,-9.9,26.4
 2004/09/04,21:30,-9.9,-9.9,-9.9,26.4
 2004/09/04,21:45,-9.9,-9.9,-9.9,26.4
 2004/09/04,22:00,-9.9,-9.9,-9.9,26.4
 2004/09/04,22:15,-9.9,-9.9,-9.9,25.9
 2004/09/04,22:30,-9.9,-9.9,-9.9,26.4
 2004/09/04,22:45,-9.9,-9.9,-9.9,26.5
 2004/09/04,23:00,-9.9,-9.9,-9.9,26.5
 2004/09/04,23:15,-9.9,-9.9,-9.9,26.5
 2004/09/04,23:30,-9.9,-9.9,-9.9,26.5
 2004/09/04,23:45,-9.9,-9.9,-9.9,26
 2004/09/05, 0:00,-9.9,-9.9,-9.9,26.2
 2004/09/05, 0:15,-9.9,-9.9,-9.9,26.2
 2004/09/05, 0:30,-9.9,-9.9,-9.9,26.2
 2004/09/05, 0:45,-9.9,-9.9,-9.9,26.2
 2004/09/05, 1:00,-9.9,-9.9,-9.9,26.2
 2004/09/05, 1:15,-9.9,-9.9,-9.9,26.2
 2004/09/05, 1:30,-9.9,-9.9,-9.9,26.2
 2004/09/05, 1:45,-9.9,-9.9,-9.9,26.2
 2004/09/05, 2:00,-9.9,-9.9,-9.9,25.8
 2004/09/05, 2:15,-9.9,-9.9,-9.9,26.2
 2004/09/05, 2:30,-9.9,-9.9,-9.9,26.2
 2004/09/05, 2:45,-9.9,-9.9,-9.9,26.2
 2004/09/05, 3:00,-9.9,-9.9,-9.9,26.2
 2004/09/05, 3:15,-9.9,-9.9,-9.9,25.6
 2004/09/05, 3:30,-9.9,-9.9,-9.9,25.8
 2004/09/05, 3:45,-9.9,-9.9,-9.9,25.8
 2004/09/05, 4:00,-9.9,-9.9,-9.9,25.8
 2004/09/05, 4:15,-9.9,-9.9,-9.9,25.8
 2004/09/05, 4:30,-9.9,-9.9,-9.9,25.8
 2004/09/05, 4:45,-9.9,-9.9,-9.9,25.8
 2004/09/05, 5:00,-9.9,-9.9,-9.9,25.8
 2004/09/05, 5:15,-9.9,-9.9,-9.9,25.8
 2004/09/05, 5:30,-9.9,-9.9,-9.9,25.7
 2004/09/05, 5:45,-9.9,-9.9,-9.9,25.7
 2004/09/05, 6:00,-9.9,-9.9,-9.9,25.7
 2004/09/05, 6:15,-9.9,-9.9,-9.9,25.7
 2004/09/05, 6:30,-9.9,-9.9,-9.9,25.7
 2004/09/05, 6:45,-9.9,-9.9,-9.9,25.6
 2004/09/05, 7:00,-9.9,-9.9,-9.9,25.6
 2004/09/05, 7:15,-9.9,-9.9,-9.9,25.6
 2004/09/05, 7:30,-9.9,-9.9,-9.9,25.5
 2004/09/05, 7:45,-9.9,-9.9,-9.9,25.8
 2004/09/05, 8:00,-9.9,-9.9,-9.9,26.4
 2004/09/05, 8:15,-9.9,-9.9,-9.9,26.3
 2004/09/05, 8:30,-9.9,-9.9,-9.9,26.3
 2004/09/05, 8:45,-9.9,-9.9,-9.9,26.3
 2004/09/05, 9:00,-9.9,-9.9,-9.9,26.4
 2004/09/05, 9:15,-9.9,-9.9,-9.9,26.4
 2004/09/05, 9:30,-9.9,-9.9,-9.9,26.4
 2004/09/05, 9:45,-9.9,-9.9,-9.9,26.3
 2004/09/05,10:00,-9.9,-9.9,-9.9,26.3
 2004/09/05,10:15,-9.9,-9.9,-9.9,26.3
 2004/09/05,10:30,-9.9,-9.9,-9.9,26.5
 2004/09/05,10:45,-9.9,-9.9,-9.9,26.5
 2004/09/05,11:00,-9.9,-9.9,-9.9,26.5
 2004/09/05,11:15,-9.9,-9.9,-9.9,26.2
 2004/09/05,11:30,-9.9,-9.9,-9.9,26.4
 2004/09/05,11:45,-9.9,-9.9,-9.9,26.4
 2004/09/05,12:00,-9.9,-9.9,-9.9,26.4
 2004/09/05,12:15,-9.9,-9.9,-9.9,26.4
 2004/09/05,12:30,-9.9,-9.9,-9.9,26.4
 2004/09/05,12:45,-9.9,-9.9,-9.9,26.3
 2004/09/05,13:00,-9.9,-9.9,-9.9,26.4
 2004/09/05,13:15,-9.9,-9.9,-9.9,26.4
 2004/09/05,13:30,-9.9,-9.9,-9.9,26.4
 2004/09/05,13:45,-9.9,-9.9,-9.9,26.4
 2004/09/05,14:00,-9.9,-9.9,-9.9,26.4
 2004/09/05,14:15,-9.9,-9.9,-9.9,26.3
 2004/09/05,14:30,-9.9,-9.9,-9.9,26.1
 2004/09/05,14:45,-9.9,-9.9,-9.9,26.5
 2004/09/05,15:00,-9.9,-9.9,-9.9,26.5
 2004/09/05,15:15,-9.9,-9.9,-9.9,26.5
 2004/09/05,15:30,-9.9,-9.9,-9.9,26.1
 2004/09/05,15:45,-9.9,-9.9,-9.9,26.5
 2004/09/05,16:00,-9.9,-9.9,-9.9,26.5
 2004/09/05,16:15,-9.9,-9.9,-9.9,26.5
 2004/09/05,16:30,-9.9,-9.9,-9.9,26.5
 2004/09/05,16:45,-9.9,-9.9,-9.9,26.5
 2004/09/05,17:00,-9.9,-9.9,-9.9,26.5
 2004/09/05,17:15,-9.9,-9.9,-9.9,26.5
 2004/09/05,17:30,-9.9,-9.9,-9.9,26.3
 2004/09/05,17:45,-9.9,-9.9,-9.9,26.4
 2004/09/05,18:00,-9.9,-9.9,-9.9,26.4
 2004/09/05,18:15,-9.9,-9.9,-9.9,26.4
 2004/09/05,18:30,-9.9,-9.9,-9.9,26.4
 2004/09/05,18:45,-9.9,-9.9,-9.9,26.3
 2004/09/05,19:00,-9.9,-9.9,-9.9,26.1
 2004/09/05,19:15,-9.9,-9.9,-9.9,26.1
 2004/09/05,19:30,-9.9,-9.9,-9.9,26.4
 2004/09/05,19:45,-9.9,-9.9,-9.9,26.6
 2004/09/05,20:00,-9.9,-9.9,-9.9,26.6
 2004/09/05,20:15,-9.9,-9.9,-9.9,26.6
 2004/09/05,20:30,-9.9,-9.9,-9.9,26.6
 2004/09/05,20:45,-9.9,-9.9,-9.9,26.7
 2004/09/05,21:00,-9.9,-9.9,-9.9,26.7
 2004/09/05,21:15,-9.9,-9.9,-9.9,26.7
 2004/09/05,21:30,-9.9,-9.9,-9.9,26.4
 2004/09/05,21:45,-9.9,-9.9,-9.9,26.4
 2004/09/05,22:00,-9.9,-9.9,-9.9,26.4
 2004/09/05,22:15,-9.9,-9.9,-9.9,26.1
 2004/09/05,22:30,-9.9,-9.9,-9.9,26.1
 2004/09/05,22:45,-9.9,-9.9,-9.9,26.1
 2004/09/05,23:00,-9.9,-9.9,-9.9,26.2
 2004/09/05,23:15,-9.9,-9.9,-9.9,26.1
 2004/09/05,23:30,-9.9,-9.9,-9.9,26.1
 2004/09/05,23:45,-9.9,-9.9,-9.9,26.4
 2004/09/06, 0:00,-9.9,-9.9,-9.9,26.5
 2004/09/06, 0:15,-9.9,-9.9,-9.9,26.5
 2004/09/06, 0:30,-9.9,-9.9,-9.9,26.5
 2004/09/06, 0:45,-9.9,-9.9,-9.9,26.5
 2004/09/06, 1:00,-9.9,-9.9,-9.9,26.5
 2004/09/06, 1:15,-9.9,-9.9,-9.9,26.5
 2004/09/06, 1:30,-9.9,-9.9,-9.9,26.4
 2004/09/06, 1:45,-9.9,-9.9,-9.9,26.4
 2004/09/06, 2:00,-9.9,-9.9,-9.9,26.4
 2004/09/06, 2:15,-9.9,-9.9,-9.9,26.4
 2004/09/06, 2:30,-9.9,-9.9,-9.9,26.3
 2004/09/06, 2:45,-9.9,-9.9,-9.9,26.3
 2004/09/06, 3:00,-9.9,-9.9,-9.9,26.3
 2004/09/06, 3:15,-9.9,-9.9,-9.9,26.3
 2004/09/06, 3:30,-9.9,-9.9,-9.9,25.8
 2004/09/06, 3:45,-9.9,-9.9,-9.9,25.8
 2004/09/06, 4:00,-9.9,-9.9,-9.9,25.8
 2004/09/06, 4:15,-9.9,-9.9,-9.9,25.8
 2004/09/06, 4:30,-9.9,-9.9,-9.9,25.8
 2004/09/06, 4:45,-9.9,-9.9,-9.9,25.8
 2004/09/06, 5:00,-9.9,-9.9,-9.9,25.8
 2004/09/06, 5:15,-9.9,-9.9,-9.9,25.8
 2004/09/06, 5:30,-9.9,-9.9,-9.9,25.8
 2004/09/06, 5:45,-9.9,-9.9,-9.9,25.8
 2004/09/06, 6:00,-9.9,-9.9,-9.9,25.7
 2004/09/06, 6:15,-9.9,-9.9,-9.9,25.7
 2004/09/06, 6:30,-9.9,-9.9,-9.9,25.7
 2004/09/06, 6:45,-9.9,-9.9,-9.9,25.7
 2004/09/06, 7:00,-9.9,-9.9,-9.9,25.7
 2004/09/06, 7:15,-9.9,-9.9,-9.9,26
 2004/09/06, 7:30,-9.9,-9.9,-9.9,26.5
 2004/09/06, 7:45,-9.9,-9.9,-9.9,26.5
 2004/09/06, 8:00,-9.9,-9.9,-9.9,26.2
 2004/09/06, 8:15,-9.9,-9.9,-9.9,26.2
 2004/09/06, 8:30,-9.9,-9.9,-9.9,26.2
 2004/09/06, 8:45,-9.9,-9.9,-9.9,26.1
 2004/09/06, 9:00,-9.9,-9.9,-9.9,26.1
 2004/09/06, 9:15,-9.9,-9.9,-9.9,26.1
 2004/09/06, 9:30,-9.9,-9.9,-9.9,26.1
 2004/09/06, 9:45,-9.9,-9.9,-9.9,26.1
 2004/09/06,10:00,-9.9,-9.9,-9.9,26.1
 2004/09/06,10:15,-9.9,-9.9,-9.9,26
 2004/09/06,10:30,-9.9,-9.9,-9.9,26
 2004/09/06,10:45,-9.9,-9.9,-9.9,26
 2004/09/06,11:00,-9.9,-9.9,-9.9,26
 2004/09/06,11:15,-9.9,-9.9,-9.9,26
 2004/09/06,11:30,-9.9,-9.9,-9.9,26
 2004/09/06,11:45,-9.9,-9.9,-9.9,26
 2004/09/06,12:00,-9.9,-9.9,-9.9,26
 2004/09/06,12:15,-9.9,-9.9,-9.9,26.1
 2004/09/06,12:30,-9.9,-9.9,-9.9,26.2
 2004/09/06,12:45,-9.9,-9.9,-9.9,26.3
 2004/09/06,13:00,-9.9,-9.9,-9.9,26.4
 2004/09/06,13:15,-9.9,-9.9,-9.9,26.4
 2004/09/06,13:30,-9.9,-9.9,-9.9,26.4
 2004/09/06,13:45,-9.9,-9.9,-9.9,26.4
 2004/09/06,14:00,-9.9,-9.9,-9.9,26.4
 2004/09/06,14:15,-9.9,-9.9,-9.9,26.5
 2004/09/06,14:30,-9.9,-9.9,-9.9,26.6
 2004/09/06,14:45,-9.9,-9.9,-9.9,26.6
 2004/09/06,15:00,-9.9,-9.9,-9.9,26.6
 2004/09/06,15:15,-9.9,-9.9,-9.9,26.5
 2004/09/06,15:30,-9.9,-9.9,-9.9,26.6
 2004/09/06,15:45,-9.9,-9.9,-9.9,26.6
 2004/09/06,16:00,-9.9,-9.9,-9.9,26.6
 2004/09/06,16:15,-9.9,-9.9,-9.9,26.7
 2004/09/06,16:30,-9.9,-9.9,-9.9,26.7
 2004/09/06,16:45,-9.9,-9.9,-9.9,26.7
 2004/09/06,17:00,-9.9,-9.9,-9.9,26.7
 2004/09/06,17:15,-9.9,-9.9,-9.9,26.8
 2004/09/06,17:30,-9.9,-9.9,-9.9,26.8
 2004/09/06,17:45,-9.9,-9.9,-9.9,26.8
 2004/09/06,18:00,-9.9,-9.9,-9.9,26.7
 2004/09/06,18:15,-9.9,-9.9,-9.9,26.7
 2004/09/06,18:30,-9.9,-9.9,-9.9,26.8
 2004/09/06,18:45,-9.9,-9.9,-9.9,26.7
 2004/09/06,19:00,-9.9,-9.9,-9.9,26.6
 2004/09/06,19:15,-9.9,-9.9,-9.9,26.6
 2004/09/06,19:30,-9.9,-9.9,-9.9,26.6
 2004/09/06,19:45,-9.9,-9.9,-9.9,26.7
 2004/09/06,20:00,-9.9,-9.9,-9.9,26.7
 2004/09/06,20:15,-9.9,-9.9,-9.9,26.7
 2004/09/06,20:30,-9.9,-9.9,-9.9,26.7
 2004/09/06,20:45,-9.9,-9.9,-9.9,26.7
 2004/09/06,21:00,-9.9,-9.9,-9.9,26.7
 2004/09/06,21:15,-9.9,-9.9,-9.9,26.7
 2004/09/06,21:30,-9.9,-9.9,-9.9,26.7
 2004/09/06,21:45,-9.9,-9.9,-9.9,26.7
 2004/09/06,22:00,-9.9,-9.9,-9.9,26.7
 2004/09/06,22:15,-9.9,-9.9,-9.9,26.5
 2004/09/06,22:30,-9.9,-9.9,-9.9,26.5
 2004/09/06,22:45,-9.9,-9.9,-9.9,26.5
 2004/09/06,23:00,-9.9,-9.9,-9.9,26.5
 2004/09/06,23:15,-9.9,-9.9,-9.9,26.5
 2004/09/06,23:30,-9.9,-9.9,-9.9,26.5
 2004/09/06,23:45,-9.9,-9.9,-9.9,26.5
 2004/09/07, 0:00,-9.9,-9.9,-9.9,26.5
 2004/09/07, 0:15,-9.9,-9.9,-9.9,26.5
 2004/09/07, 0:30,-9.9,-9.9,-9.9,26.5
 2004/09/07, 0:45,-9.9,-9.9,-9.9,26.5
 2004/09/07, 1:00,-9.9,-9.9,-9.9,26.5
 2004/09/07, 1:15,-9.9,-9.9,-9.9,26.5
 2004/09/07, 1:30,-9.9,-9.9,-9.9,26.5
 2004/09/07, 1:45,-9.9,-9.9,-9.9,26.5
 2004/09/07, 2:00,-9.9,-9.9,-9.9,26.5
 2004/09/07, 2:15,-9.9,-9.9,-9.9,26.4
 2004/09/07, 2:30,-9.9,-9.9,-9.9,26.4
 2004/09/07, 2:45,-9.9,-9.9,-9.9,26.4
 2004/09/07, 3:00,-9.9,-9.9,-9.9,26.4
 2004/09/07, 3:15,-9.9,-9.9,-9.9,26.4
 2004/09/07, 3:30,-9.9,-9.9,-9.9,26.4
 2004/09/07, 3:45,-9.9,-9.9,-9.9,26.4
 2004/09/07, 4:00,-9.9,-9.9,-9.9,26.4
 2004/09/07, 4:15,-9.9,-9.9,-9.9,26.3
 2004/09/07, 4:30,-9.9,-9.9,-9.9,26.3
 2004/09/07, 4:45,-9.9,-9.9,-9.9,26.3
 2004/09/07, 5:00,-9.9,-9.9,-9.9,26.3
 2004/09/07, 5:15,-9.9,-9.9,-9.9,26.3
 2004/09/07, 5:30,-9.9,-9.9,-9.9,26.3
 2004/09/07, 5:45,-9.9,-9.9,-9.9,26.2
 2004/09/07, 6:00,-9.9,-9.9,-9.9,26.2
 2004/09/07, 6:15,-9.9,-9.9,-9.9,25.7
 2004/09/07, 6:30,-9.9,-9.9,-9.9,25.9
 2004/09/07, 6:45,-9.9,-9.9,-9.9,25.9
 2004/09/07, 7:00,-9.9,-9.9,-9.9,25.9
 2004/09/07, 7:15,-9.9,-9.9,-9.9,26.3
 2004/09/07, 7:30,-9.9,-9.9,-9.9,26.5
 2004/09/07, 7:45,-9.9,-9.9,-9.9,26.5
 2004/09/07, 8:00,-9.9,-9.9,-9.9,26.5
 2004/09/07, 8:15,-9.9,-9.9,-9.9,26.5
 2004/09/07, 8:30,-9.9,-9.9,-9.9,26.5
 2004/09/07, 8:45,-9.9,-9.9,-9.9,26.5
 2004/09/07, 9:00,-9.9,-9.9,-9.9,26.5
 2004/09/07, 9:15,-9.9,-9.9,-9.9,26.6
 2004/09/07, 9:30,-9.9,-9.9,-9.9,26.5
 2004/09/07, 9:45,-9.9,-9.9,-9.9,26.3
 2004/09/07,10:00,-9.9,-9.9,-9.9,26.3
 2004/09/07,10:15,-9.9,-9.9,-9.9,26.4
 2004/09/07,10:30,-9.9,-9.9,-9.9,26.4
 2004/09/07,10:45,-9.9,-9.9,-9.9,26.4
 2004/09/07,11:00,-9.9,-9.9,-9.9,26.4
 2004/09/07,11:15,-9.9,-9.9,-9.9,26.3
 2004/09/07,11:30,-9.9,-9.9,-9.9,26.3
 2004/09/07,11:45,-9.9,-9.9,-9.9,26.3
 2004/09/07,12:00,-9.9,-9.9,-9.9,26.3
 2004/09/07,12:15,-9.9,-9.9,-9.9,26.4
 2004/09/07,12:30,-9.9,-9.9,-9.9,26.5
 2004/09/07,12:45,-9.9,-9.9,-9.9,26.7
 2004/09/07,13:00,-9.9,-9.9,-9.9,26.5